Flag for U.S.A. Weather past 2 weeks in Buffalo, New York, U.S.A.

Now
54 °F

Cloudy.


Feels Like: 51 °F
Forecast: 41 / 54 °F
Wind: 9 mph from Southwest

Location: Greater Buffalo International Airport


UV Index: 0 (Low)

Visibility: 10 mi


Pressure: 30.21 "Hg

Humidity: 45%

Dew point: 33 °F

Location of BuffaloLocation

Historic Weather in Buffalo

°F

Buffalo temperature yesterday

Maximum temperature yesterday: 60 °F (at 4:54 PM)
Minimum temperature yesterday: 29 °F (at 5:54 AM)
Average temperature yesterday: 45 °F

Past Weeks' High & Low Weather Summary

 TemperatureHumidityPressure
High75 °F (Apr 14, 10:54 AM)100% (Apr 11, 7:54 AM)30.57 "Hg (Apr 11, 7:54 AM)
Low24 °F (Apr 16, 12:54 AM)25% (Apr 10, 2:54 PM)29.25 "Hg (Apr 8, 5:54 AM)
Average44 °F67%29.96 "Hg
* Reported Apr 3 3:54 PM — Apr 18 3:54 PM, Buffalo, Weather by CustomWeather, © 2014

Note: Actual official high and low records may vary slightly from our data, if they occured in-between our weather recording intervals... More about our weather records

Advertising

Historic Weather Conditions — Data for Previous 24 hours

 ConditionsComfort  
Time TempWeatherWind HumidityBarometerVisibility
3:54 PM
Apr 18
59 °FBroken clouds.10 mph39%30.22 "Hg10 mi
2:54 PM58 °FBroken clouds.12 mph38%30.23 "Hg10 mi
1:54 PM57 °FPartly sunny.14 mph37%30.23 "Hg10 mi
12:54 PM57 °FBroken clouds.14 mph36%30.27 "Hg10 mi
11:54 AM57 °FBroken clouds.14 mph36%30.27 "Hg10 mi
10:54 AM56 °FOvercast.9 mph39%30.28 "Hg10 mi
9:54 AM55 °FMore clouds than sun.13 mph40%30.27 "Hg10 mi
8:54 AM51 °FBroken clouds.15 mph44%30.29 "Hg10 mi
7:54 AM46 °FMore clouds than sun.9 mph54%30.29 "Hg10 mi
6:54 AM43 °FPartly cloudy.9 mph58%30.29 "Hg10 mi
5:54 AM44 °FPassing clouds.8 mph53%30.28 "Hg10 mi
4:54 AM45 °FPassing clouds.9 mph51%30.29 "Hg10 mi
3:54 AM46 °FPassing clouds.9 mph48%30.29 "Hg10 mi
2:54 AM47 °FPassing clouds.10 mph46%30.32 "Hg10 mi
1:54 AM49 °FPassing clouds.12 mph41%30.34 "Hg10 mi
12:54 AM50 °FPassing clouds.14 mph39%30.37 "Hg10 mi
11:54 PM
Apr 17
50 °FPassing clouds.13 mph38%30.36 "Hg10 mi
10:54 PM52 °FOvercast.14 mph35%30.36 "Hg10 mi
9:54 PM52 °FClear.12 mph37%30.37 "Hg10 mi
8:54 PM54 °FBroken clouds.12 mph34%30.37 "Hg10 mi
7:54 PM57 °FBroken clouds.7 mph29%30.36 "Hg10 mi
6:54 PM59 °FPartly sunny.9 mph27%30.36 "Hg10 mi
5:54 PM60 °FPartly sunny.8 mph26%30.37 "Hg10 mi
Weather by CustomWeather, © 2014

See weather overview